St Lawrence Observation History
Time Wind Speed Temp Pressure Rel. Hum Rain
04/07:30am SSE 7-11 kts 12.7°c 1024.2 hPa 57% 0.0mm
04/07:00am SSE 6-8 kts 11.0°c 1024.0 hPa 63% 0.0mm
04/06:30am SSE 5-7 kts 10.5°c 1023.5 hPa 64% 0.0mm
04/06:00am SSE 5-7 kts 10.6°c 1023.2 hPa 63% 0.0mm
04/05:30am SSE 6-9 kts 11.0°c 1022.7 hPa 62% 0.0mm
04/05:00am SSE 7-10 kts 11.0°c 1022.4 hPa 62% 0.0mm
04/04:30am SSE 7-9 kts 11.3°c 1022.3 hPa 60% 0.0mm
04/04:00am SSE 6-8 kts 11.7°c 1022.3 hPa 59% 0.0mm
04/03:30am SSE 6-8 kts 11.9°c 1022.5 hPa 57% 0.0mm
04/03:00am SSE 7-10 kts 12.3°c 1022.4 hPa 56% 0.0mm
04/02:30am SSE 6-9 kts 12.2°c 1022.5 hPa 58% 0.0mm
04/02:00am SSE 5-6 kts 10.8°c 1022.7 hPa 63% 0.0mm
04/01:30am SSE 4-6 kts 11.2°c 1022.5 hPa 61% 0.0mm
04/01:00am SSE 5-7 kts 11.3°c 1022.5 hPa 61% 0.0mm
04/12:30am SSE 5-6 kts 8.8°c 1022.7 hPa 73% 0.0mm
04/12:00am SSE 4-7 kts 8.4°c 1022.9 hPa 73% 0.0mm
Time Wind Speed Temp Pressure Rel. Hum Rain
03/11:30pm CALM 0-3 kts 8.3°c 1022.9 hPa 74% 0.0mm
03/11:00pm S 3-4 kts 8.9°c 1022.8 hPa 71% 0.0mm
03/10:30pm CALM 0 kts 9.1°c 1022.6 hPa 70% 0.0mm
03/10:00pm CALM 0 kts 9.3°c 1022.7 hPa 69% 0.0mm
03/09:30pm SSW 1-3 kts 9.1°c 1022.8 hPa 67% 0.0mm
03/09:00pm SSW 3-4 kts 10.7°c 1022.7 hPa 62% 0.0mm
03/08:30pm CALM 0 kts 11.5°c 1022.6 hPa 59% 0.0mm
03/08:00pm CALM 0-3 kts 11.6°c 1022.5 hPa 58% 0.0mm
03/07:30pm SW 4 kts 13.0°c 1022.3 hPa 54% 0.0mm
03/07:00pm CALM 0 kts 13.4°c 1022.0 hPa 50% 0.0mm
03/06:30pm SSE 2-4 kts 14.7°c 1021.5 hPa 46% 0.0mm
03/06:00pm CALM 0-2 kts 16.0°c 1021.1 hPa 41% 0.0mm
03/05:30pm SSE 4-6 kts 18.5°c 1020.8 hPa 32% 0.0mm
03/05:00pm SSE 5-8 kts 20.5°c 1020.5 hPa 28% 0.0mm
03/04:30pm SSE 8-13 kts 21.7°c 1020.3 hPa 26% 0.0mm
03/04:00pm SSE 8-12 kts 21.8°c 1020.0 hPa 24% 0.0mm
03/03:30pm SSE 7-12 kts 22.2°c 1020.1 hPa 24% 0.0mm
03/03:00pm SSE 8-12 kts 22.3°c 1020.3 hPa 25% 0.0mm
03/02:30pm S 8-15 kts 21.9°c 1020.4 hPa 25% 0.0mm
03/02:00pm SSE 9-14 kts 22.0°c 1020.5 hPa 25% 0.0mm
03/01:30pm S 8-13 kts 21.5°c 1020.7 hPa 27% 0.0mm
03/01:00pm S 8-14 kts 21.0°c 1021.1 hPa 27% 0.0mm
03/12:30pm S 8-14 kts 20.7°c 1021.6 hPa 28% 0.0mm
03/12:00pm S 7-11 kts 20.5°c 1022.4 hPa 28% 0.0mm
03/11:30am S 8-14 kts 20.3°c 1022.7 hPa 30% 0.0mm
03/11:00am SSE 11-16 kts 18.9°c 1023.0 hPa 30% 0.0mm
03/10:30am SSE 11-20 kts 18.5°c 1023.3 hPa 31% 0.0mm
03/10:00am S 10-18 kts 17.5°c 1023.8 hPa 34% 0.0mm
03/09:30am SSE 12-19 kts 16.4°c 1024.1 hPa 36% 0.0mm
03/09:00am S 13-18 kts 15.5°c 1023.9 hPa 38% 0.0mm
03/08:30am SSE 11-18 kts 14.8°c 1023.8 hPa 39% 0.0mm
03/08:00am S 9-12 kts 13.7°c 1023.6 hPa 42% 0.0mm
03/07:30am S 9-13 kts 12.6°c 1023.4 hPa 43% 0.0mm
03/07:00am S 8-11 kts 12.0°c 1023.0 hPa 45% 0.0mm
03/06:30am S 10-16 kts 12.2°c 1022.7 hPa 44% 0.0mm
03/06:00am S 10-15 kts 12.4°c 1022.2 hPa 44% 0.0mm
03/05:30am S 9-14 kts 12.5°c 1021.9 hPa 44% 0.0mm
03/05:00am SSE 9-13 kts 12.5°c 1021.8 hPa 43% 0.0mm
03/04:30am S 8-13 kts 12.7°c 1021.6 hPa 42% 0.0mm
03/04:00am S 6-8 kts 12.2°c 1021.6 hPa 45% 0.0mm
03/03:30am SSE 7-10 kts 12.6°c 1021.5 hPa 42% 0.0mm
03/03:00am SSE 7-10 kts 12.7°c 1021.4 hPa 43% 0.0mm
03/02:30am SSE 8-13 kts 13.2°c 1021.5 hPa 42% 0.0mm
03/02:00am SSE 7-9 kts 12.9°c 1021.5 hPa 46% 0.0mm
03/01:30am SSE 5-7 kts 12.8°c 1021.7 hPa 49% 0.0mm
03/01:00am SSE 5-7 kts 13.0°c 1022.0 hPa 50% 0.0mm
03/12:30am CALM 0 kts 9.4°c 1021.9 hPa 83% 0.0mm
03/12:00am CALM 0 kts 9.3°c 1022.0 hPa 82% 0.0mm
Time Wind Speed Temp Pressure Rel. Hum Rain
02/11:30pm S 3-4 kts 10.4°c 1022.0 hPa 73% 0.0mm
02/11:00pm S 3-5 kts 10.6°c 1022.2 hPa 75% 0.0mm
02/10:30pm S 3-4 kts 12.1°c 1022.3 hPa 69% 0.0mm
02/10:00pm S 5-7 kts 14.2°c 1022.3 hPa 57% 0.0mm
02/09:30pm SSE 5-6 kts 13.6°c 1022.1 hPa 62% 0.0mm
02/09:00pm SSE 4-5 kts 14.7°c 1021.9 hPa 57% 0.0mm
02/08:30pm SE 4-6 kts 15.3°c 1021.5 hPa 54% 0.0mm
02/08:00pm S 3-4 kts 15.0°c 1021.2 hPa 57% 0.0mm
02/07:30pm S 4-5 kts 17.1°c 1020.8 hPa 49% 0.0mm
02/07:00pm SSE 4-5 kts 18.3°c 1020.5 hPa 46% 0.0mm
02/06:30pm SSE 6-9 kts 20.1°c 1020.2 hPa 38% 0.0mm
02/06:00pm SE 5-7 kts 20.0°c 1019.8 hPa 41% 0.0mm
02/05:30pm SSE 6-9 kts 21.2°c 1019.4 hPa 37% 0.0mm
02/05:00pm SSE 7-11 kts 22.9°c 1019.0 hPa 33% 0.0mm
02/04:30pm SSE 8-13 kts 23.9°c 1018.7 hPa 30% 0.0mm
02/04:00pm SSE 9-14 kts 24.7°c 1018.2 hPa 29% 0.0mm
02/03:30pm SSE 7-11 kts 25.4°c 1018.2 hPa 29% 0.0mm
02/03:00pm SSE 7-11 kts 25.5°c 1018.1 hPa 28% 0.0mm
02/02:30pm SE 7-12 kts 25.4°c 1018.0 hPa 29% 0.0mm
02/02:00pm ESE 8-12 kts 25.5°c 1018.2 hPa 31% 0.0mm
02/01:30pm SE 7-11 kts 25.8°c 1018.3 hPa 32% 0.0mm
02/01:00pm SE 7-11 kts 25.2°c 1018.7 hPa 33% 0.0mm
02/12:30pm SSE 8-11 kts 25.1°c 1019.1 hPa 32% 0.0mm
02/12:00pm S 8-13 kts 24.4°c 1019.5 hPa 32% 0.0mm
02/11:30am SSE 9-13 kts 23.6°c 1019.7 hPa 32% 0.0mm
02/11:00am SSE 9-13 kts 23.5°c 1020.0 hPa 34% 0.0mm
02/10:30am SSE 10-15 kts 22.7°c 1020.2 hPa 36% 0.0mm
02/10:00am SSE 9-13 kts 22.1°c 1020.4 hPa 36% 0.0mm
02/09:30am SSE 10-15 kts 21.3°c 1020.6 hPa 39% 0.0mm
02/09:00am SSE 11-15 kts 20.4°c 1020.6 hPa 44% 0.0mm
02/08:30am SSE 6-9 kts 19.9°c 1020.4 hPa 67% 0.0mm
02/08:00am SSE 6-9 kts 18.7°c 1020.4 hPa 77% 0.0mm
02/07:30am SSE 7-10 kts 17.0°c 1019.9 hPa 93% 0.0mm
02/07:00am SSE 7-9 kts 16.4°c 1019.3 hPa 97% 0.0mm
02/06:30am CALM 0 kts 14.6°c 1018.7 hPa 94% 0.0mm
02/06:00am CALM 0 kts 15.0°c 1018.2 hPa 94% 0.0mm
02/05:30am CALM 0 kts 15.4°c 1017.7 hPa 95% 0.0mm
02/05:00am CALM 0 kts 15.1°c 1017.4 hPa 94% 0.0mm
02/04:30am SW 1-3 kts 15.6°c 1017.2 hPa 94% 0.0mm
02/04:00am SW 1-3 kts 15.9°c 1017.2 hPa 95% 0.0mm
02/03:30am S 4-5 kts 15.6°c 1016.9 hPa 94% 0.0mm
02/03:00am S 4-6 kts 15.6°c 1016.8 hPa 94% 0.0mm
02/02:30am S 4-5 kts 15.5°c 1016.9 hPa 94% 0.0mm
02/02:00am CALM 0 kts 15.3°c 1017.0 hPa 93% 0.0mm
02/01:30am CALM 0 kts 15.1°c 1017.0 hPa 93% 0.0mm
02/01:00am CALM 0 kts 15.3°c 1017.2 hPa 92% 0.0mm
02/12:30am N 1-3 kts 15.7°c 1017.2 hPa 93% 0.0mm
02/12:00am CALM 0 kts 15.8°c 1017.3 hPa 93% 0.0mm